Regional Weather Roundup
Issued by NWS

Home | Current Version | Previous Version | Text Only | Print | Product List | Glossary Off
Versions: 1 2 3 4 5 6 7 8 9 10 11 12 13 14 15 16 17 18 19 20 21 22 23 24 25 26 27 28 29 30 31 32 33 34

000
ASUS43 KDMX 211507
RWRIA

WEATHER ROUNDUP FOR IOWA
NATIONAL WEATHER SERVICE DES MOINES IA
1000 AM CDT TUE OCT 21 2014

NOTE: "FAIR" INDICATES FEW OR NO CLOUDS BELOW 12,000 FEET WITH NO
SIGNIFICANT WEATHER AND/OR OBSTRUCTIONS TO VISIBILITY.

* - THESE STATIONS ARE NOT NWS STATIONS...THUS NOT UNDER NWS
QUALITY CONTROL.  THEY ALSO DO NOT REPORT WEATHER SUCH
AS PRECIPITATION OR FOG.

IAZ001>003-012>014-020>022-031>034-043>046-211600-
   NORTHWEST IOWA

CITY           SKY/WX    TMP DP  RH WIND       PRES   REMARKS
CARROLL *      SUNNY     50  45  81 CALM      30.15R
CHEROKEE *     SUNNY     46  43  87 CALM      30.13S
DENISON *      SUNNY     48  45  87 CALM      30.12S
LE MARS *      SUNNY     54  45  71 S7        30.11S
ORANGE CITY *  SUNNY     55  43  62 S6        30.10F
SHELDON *      SUNNY     54  43  66 SE7       30.10S
SIOUX CITY     SUNNY     50  43  77 SE7       30.11S
SPENCER        SUNNY     50  42  74 SE8       30.14S
STORM LAKE *   SUNNY     52  43  71 SE7       30.14S
$$

IAZ055>058-069>071-079>083-090>094-211600-
   SOUTHWEST IOWA

CITY           SKY/WX    TMP DP  RH WIND       PRES   REMARKS
ATLANTIC *     SUNNY     50  43  76 CALM      30.14S
AUDUBON *      SUNNY     50  43  76 CALM      30.15R
CLARINDA *     SUNNY     50  45  81 CALM      30.16S
COUNCIL BLFS * SUNNY     57  46  67 SE6       30.12S
CRESTON *      SUNNY     55  45  67 VRB3      30.15R
HARLAN  *      SUNNY     50  46  87 CALM      30.17S
LAMONI         SUNNY     54  44  69 E3        30.15R
RED OAK *      SUNNY     52  45  76 CALM      30.14S
SHENANDOAH *   SUNNY     52  46  82 CALM      30.15S
$$

IAZ047>049-059>061-072>074-084-211600-
   CENTRAL IOWA

CITY           SKY/WX    TMP DP  RH WIND       PRES   REMARKS
AMES           SUNNY     49  43  80 SE6       30.17R
ANKENY *       SUNNY     52  45  76 SE6       30.16S
CHARITON *     SUNNY     54  45  71 E6        30.16R
DES MOINES     SUNNY     53  43  68 E5        30.16R
GRINNELL*      SUNNY     52  45  76 E9        30.18S
KNOXVILLE *    SUNNY     52  43  71 E9        30.16R
MARSHALLTOWN   SUNNY     51  44  77 E8        30.18R
PELLA *        SUNNY     54  45  71 SE7       30.18S
PERRY *          N/A     50  45  81 E5        30.16R
$$

IAZ004>006-015-016-023>025-035-036-211600-
   NORTH CENTRAL IOWA

CITY           SKY/WX    TMP DP  RH WIND       PRES   REMARKS
ALGONA *       SUNNY     50  43  76 SE7       30.16S
CLARION *      SUNNY     52  45  76 SE9G15    30.17R
ESTHERVILLE    SUNNY     47  42  83 S6        30.15R
FORT DODGE *   SUNNY     48  43  81 E5        30.16S
MASON CITY     SUNNY     48  42  80 E7        30.20R
FOREST CITY *  SUNNY     48  45  87 SE7       30.18R
IOWA FALLS *     N/A     52  45  76 E7        30.19R
$$

IAZ007>011-017>019-026>030-037>042-050>054-066-211600-
   NORTHEAST IOWA

CITY           SKY/WX    TMP DP  RH WIND       PRES   REMARKS
CEDAR RAPIDS   SUNNY     50  42  74 E10       30.19R
CHARLES CITY * SUNNY     50  41  71 E9        30.21R
CLINTON *      SUNNY     48  39  71 NE10      30.23R
DECORAH *      SUNNY     46  41  81 VRB5G12   30.21R
DUBUQUE        SUNNY     47  41  80 NE9       30.21R
MONTICELLO *   SUNNY     50  43  76 E8        30.20R
OELWEIN *      SUNNY     50  43  76 E10       30.21R
WATERLOO       SUNNY     50  42  74 E8        30.20R
$$

IAZ064-065-067-068-078-211600-
   EAST CENTRAL IOWA

CITY           SKY/WX    TMP DP  RH WIND       PRES   REMARKS
DAVENPORT      SUNNY     50  41  71 NE12      30.20R
IOWA CITY      SUNNY     52  42  69 NE9       30.21R
MT. PLEASANT * SUNNY     52  45  76 NE9       30.19R
MUSCATINE *    SUNNY     52  43  71 NE12      30.20R
QUAD CITIES    SUNNY     52  42  69 NE12      30.19R
$$

IAZ062-063-075>077-085>089-095>099-211600-
   SOUTHEAST IOWA

CITY           SKY/WX    TMP DP  RH WIND       PRES   REMARKS
BURLINGTON     SUNNY     52  44  74 NE12      30.18R
FAIRFIELD *    SUNNY     52  45  76 E8        30.18R
FORT MADISON * SUNNY     54  46  76 NE12      30.18R
KEOKUK *       SUNNY     54  43  66 E12       30.17R
OSKALOOSA *      N/A     52  43  71 E7        30.18R
CENTERVILLE *  SUNNY     54  46  76 E6        30.17R
OTTUMWA        SUNNY     52  44  74 E7        30.17R
WASHINGTON *   SUNNY     52  45  76 NE8       30.19R
$$

ABBREVIATIONS USED IN REMARKS
   TC - TEMPERATURES IN CELSIUS
  WCI - WIND CHILL INDEX
   HX - HEAT INDEX
  VSB - VISIBILITY
$$




USA.gov is the U.S. government's official web portal to all federal, state and local government web resources and services.